 day,  time,  air_temp(C),  RH(%),  ground_temp10cm(C),  ground_temp20cm(C),  ground_temp40cm(C),  precipitation(mm/h),  Solar_Radiation(MJ/m2h),  lack, 
 03/06/01, 01:00,  13.6,  97,  15.9,  15.8,  14.2,   2.0,  0.00, 
 03/06/01, 02:00,  13.1,  99,  15.6,  15.7,  14.2,   3.5,  0.00, 
 03/06/01, 03:00,  13.6,  99,  15.5,  15.7,  14.2,   4.0,  0.00, 
 03/06/01, 04:00,  13.8,  99,  15.2,  15.6,  14.2,   4.0,  0.00, 
 03/06/01, 05:00,  13.8,  99,  15.2,  15.6,  14.2,   2.0,  0.00, 
 03/06/01, 06:00,  13.5,  99,  15.2,  15.5,  14.3,   1.5,  0.00, 
 03/06/01, 07:00,  13.5,  99,  15.1,  15.4,  14.3,   1.0,  0.04, 
 03/06/01, 08:00,  13.3,  99,  15.1,  15.4,  14.3,   0.0,  0.24, 
 03/06/01, 09:00,  13.5,  99,  15.2,  15.3,  14.3,   0.0,  0.71, 
 03/06/01, 10:00,  13.9,  99,  15.4,  15.3,  14.3,   0.0,  0.76, 
 03/06/01, 11:00,  13.5,  99,  15.6,  15.2,  14.3,   0.5,  0.54, 
 03/06/01, 12:00,  12.6,  99,  15.6,  15.2,  14.3,   0.0,  0.22, 
 03/06/01, 13:00,  12.2,  99,  15.6,  15.2,  14.3,   0.0,  0.40, 
 03/06/01, 14:00,  11.8,  99,  15.6,  15.2,  14.3,   0.0,  0.47, 
 03/06/01, 15:00,  11.8,  99,  15.6,  15.2,  14.3,   0.0,  1.06, 
 03/06/01, 16:00,  11.8,  96,  15.6,  15.2,  14.3,   0.0,  0.53, 
 03/06/01, 17:00,  11.1,  95,  15.6,  15.2,  14.3,   0.0,  0.46, 
 03/06/01, 18:00,  10.6,  89,  15.6,  15.2,  14.3,   0.0,  0.35, 
 03/06/01, 19:00,   9.3,  92,  15.3,  15.2,  14.3,   0.0,  0.12, 
 03/06/01, 20:00,   8.7,  90,  15.1,  15.2,  14.2,   0.0,  0.00, 
 03/06/01, 21:00,   7.8,  97,  14.7,  15.2,  14.2,   0.0,  0.00, 
 03/06/01, 22:00,   6.8,  99,  14.4,  15.1,  14.2,   0.0,  0.00, 
 03/06/01, 23:00,   6.4,  96,  14.0,  15.0,  14.2,   0.0,  0.00, 
 03/06/02, 00:00,   6.3,  92,  13.6,  14.9,  14.2,   0.0,  0.00, 
 03/06/02, 01:00,   7.0,  77,  13.3,  14.8,  14.2,   0.5,  0.00, 
 03/06/02, 02:00,   8.3,  55,  12.9,  14.6,  14.2,   0.0,  0.00, 
 03/06/02, 03:00,   7.6,  59,  12.6,  14.5,  14.2,   0.0,  0.00, 
 03/06/02, 04:00,   7.1,  59,  12.4,  14.4,  14.2,   0.0,  0.00, 
 03/06/02, 05:00,   8.4,  53,  12.1,  14.2,  14.2,   0.0,  0.00, 
 03/06/02, 06:00,   7.7,  67,  11.8,  14.0,  14.1,   0.0,  0.25, 
 03/06/02, 07:00,   9.6,  67,  11.7,  13.9,  14.1,   0.0,  1.05, 
 03/06/02, 08:00,   9.2,  83,  12.0,  13.8,  14.1,   0.0,  1.84, 
 03/06/02, 09:00,  11.0,  80,  12.6,  13.6,  14.1,   0.0,  2.53, 
 03/06/02, 10:00,  13.5,  62,  13.5,  13.6,  14.1,   0.0,  3.10, 
 03/06/02, 11:00,  14.4,  53,  14.3,  13.6,  14.0,   0.0,  3.44, 
 03/06/02, 12:00,  16.5,  45,  15.7,  13.6,  14.0,   0.0,  3.60, 
 03/06/02, 13:00,  16.6,  40,  17.0,  13.8,  14.0,   0.0,  3.59, 
 03/06/02, 14:00,  16.5,  41,  17.4,  14.0,  13.9,   0.0,  3.32, 
 03/06/02, 15:00,  15.7,  39,  17.2,  14.3,  13.9,   0.0,  2.90, 
 03/06/02, 16:00,  15.4,  33,  17.1,  14.6,  13.9,   0.0,  2.31, 
 03/06/02, 17:00,  14.7,  35,  17.2,  14.8,  13.8,   0.0,  1.60, 
 03/06/02, 18:00,  13.1,  42,  17.1,  14.9,  13.8,   0.0,  0.82, 
 03/06/02, 19:00,   9.7,  54,  16.8,  15.1,  13.8,   0.0,  0.18, 
 03/06/02, 20:00,   8.1,  59,  16.3,  15.2,  13.8,   0.0,  0.00, 
 03/06/02, 21:00,   7.1,  64,  15.7,  15.2,  13.8,   0.0,  0.00, 
 03/06/02, 22:00,   6.7,  72,  15.2,  15.2,  13.8,   0.0,  0.00, 
 03/06/02, 23:00,   6.5,  65,  14.8,  15.2,  13.8,   0.0,  0.00, 
 03/06/03, 00:00,   6.4,  70,  14.3,  15.1,  13.8,   0.0,  0.00, 
 03/06/03, 01:00,   6.0,  67,  14.0,  15.0,  13.8,   0.0,  0.00, 
 03/06/03, 02:00,   7.0,  59,  13.6,  14.8,  13.9,   0.0,  0.00, 
 03/06/03, 03:00,   6.8,  61,  13.4,  14.7,  13.9,   0.0,  0.00, 
 03/06/03, 04:00,   6.9,  58,  13.1,  14.5,  13.9,   0.0,  0.00, 
 03/06/03, 05:00,   6.1,  58,  12.8,  14.4,  13.9,   0.0,  0.00, 
 03/06/03, 06:00,   7.7,  58,  12.5,  14.3,  13.9,   0.0,  0.25, 
 03/06/03, 07:00,  11.3,  44,  12.4,  14.2,  13.9,   0.0,  1.02, 
 03/06/03, 08:00,  11.5,  57,  12.7,  14.0,  13.9,   0.0,  1.78, 
 03/06/03, 09:00,  12.9,  55,  13.3,  13.9,  13.9,   0.0,  2.48, 
 03/06/03, 10:00,  15.5,  44,  13.9,  13.8,  13.8,   0.0,  3.08, 
 03/06/03, 11:00,  15.4,  40,  14.8,  13.7,  13.8,   0.0,  3.46, 
 03/06/03, 12:00,  16.7,  34,  16.2,  13.9,  13.8,   0.0,  3.66, 
 03/06/03, 13:00,  18.1,  36,  17.6,  14.0,  13.8,   0.0,  3.56, 
 03/06/03, 14:00,  18.4,  39,  17.9,  14.3,  13.8,   0.0,  3.35, 
 03/06/03, 15:00,  17.8,  40,  17.7,  14.5,  13.8,   0.0,  2.93, 
 03/06/03, 16:00,  17.4,  46,  17.6,  14.8,  13.7,   0.0,  2.23, 
 03/06/03, 17:00,  16.5,  52,  17.8,  15.0,  13.7,   0.0,  1.56, 
 03/06/03, 18:00,  14.6,  54,  17.7,  15.2,  13.7,   0.0,  0.88, 
 03/06/03, 19:00,  12.3,  67,  17.5,  15.3,  13.7,   0.0,  0.17, 
 03/06/03, 20:00,  10.9,  72,  17.0,  15.4,  13.7,   0.0,  0.00, 
 03/06/03, 21:00,  10.4,  73,  16.6,  15.5,  13.7,   0.0,  0.00, 
 03/06/03, 22:00,  11.1,  69,  16.2,  15.5,  13.7,   0.0,  0.00, 
 03/06/03, 23:00,  10.1,  73,  15.7,  15.5,  13.8,   0.0,  0.00, 
 03/06/04, 00:00,  10.7,  67,  15.3,  15.4,  13.8,   0.0,  0.00, 
 03/06/04, 01:00,  10.7,  67,  14.9,  15.3,  13.8,   0.0,  0.00, 
 03/06/04, 02:00,   9.5,  72,  14.7,  15.3,  13.8,   0.0,  0.00, 
 03/06/04, 03:00,  10.4,  68,  14.4,  15.1,  13.8,   0.0,  0.00, 
 03/06/04, 04:00,   9.9,  71,  14.0,  15.0,  13.8,   0.0,  0.00, 
 03/06/04, 05:00,  10.7,  63,  13.8,  14.9,  13.9,   0.0,  0.00, 
 03/06/04, 06:00,  10.6,  69,  13.6,  14.8,  13.9,   0.0,  0.16, 
 03/06/04, 07:00,  12.5,  66,  13.6,  14.7,  13.9,   0.0,  0.81, 
 03/06/04, 08:00,  13.3,  62,  13.7,  14.6,  13.9,   0.0,  0.74, 
 03/06/04, 09:00,  12.9,  70,  14.0,  14.5,  13.9,   0.0,  0.89, 
 03/06/04, 10:00,  12.9,  72,  14.2,  14.4,  13.9,   0.0,  0.72, 
 03/06/04, 11:00,  13.7,  60,  14.3,  14.3,  13.9,   0.0,  1.00, 
 03/06/04, 12:00,  13.8,  65,  14.5,  14.3,  13.9,   0.0,  1.07, 
 03/06/04, 13:00,  13.7,  64,  14.6,  14.3,  13.9,   0.0,  0.92, 
 03/06/04, 14:00,  13.8,  72,  14.9,  14.3,  13.9,   0.0,  0.93, 
 03/06/04, 15:00,  13.3,  64,  15.0,  14.4,  13.8,   0.0,  0.77, 
 03/06/04, 16:00,  12.3,  74,  15.1,  14.4,  13.8,   0.0,  0.52, 
 03/06/04, 17:00,  11.7,  71,  15.1,  14.4,  13.8,   0.0,  0.31, 
 03/06/04, 18:00,  11.3,  80,  15.0,  14.5,  13.8,   0.0,  0.21, 
 03/06/04, 19:00,  11.0,  73,  14.8,  14.5,  13.8,   0.0,  0.08, 
 03/06/04, 20:00,  11.2,  73,  14.5,  14.5,  13.8,   0.0,  0.00, 
 03/06/04, 21:00,   8.5,  85,  14.4,  14.5,  13.8,   0.0,  0.00, 
 03/06/04, 22:00,   8.7,  83,  14.0,  14.4,  13.8,   0.0,  0.00, 
 03/06/04, 23:00,   8.6,  85,  13.7,  14.4,  13.8,   0.0,  0.00, 
 03/06/05, 00:00,   7.1,  94,  13.5,  14.3,  13.8,   0.0,  0.00, 
 03/06/05, 01:00,   7.3,  88,  13.2,  14.3,  13.8,   0.0,  0.00, 
 03/06/05, 02:00,   7.1,  88,  13.0,  14.2,  13.8,   0.0,  0.00, 
 03/06/05, 03:00,   7.0,  90,  12.6,  14.1,  13.8,   0.0,  0.00, 
 03/06/05, 04:00,   6.5,  92,  12.4,  14.0,  13.7,   0.0,  0.00, 
 03/06/05, 05:00,   7.0,  91,  12.1,  13.8,  13.7,   0.0,  0.00, 
 03/06/05, 06:00,   8.5,  90,  11.9,  13.6,  13.7,   0.0,  0.24, 
 03/06/05, 07:00,  12.4,  69,  11.9,  13.6,  13.7,   0.0,  1.04, 
 03/06/05, 08:00,  12.9,  73,  12.2,  13.5,  13.7,   0.0,  1.81, 
 03/06/05, 09:00,  14.4,  71,  13.0,  13.4,  13.7,   0.0,  2.50, 
 03/06/05, 10:00,  15.8,  66,  13.7,  13.4,  13.7,   0.0,  3.00, 
 03/06/05, 11:00,  17.2,  61,  14.8,  13.4,  13.7,   0.0,  3.37, 
 03/06/05, 12:00,  18.9,  51,  16.1,  13.5,  13.6,   0.0,  3.54, 
 03/06/05, 13:00,  19.7,  49,  17.5,  13.7,  13.6,   0.0,  3.44, 
 03/06/05, 14:00,  19.3,  44,  18.0,  13.9,  13.6,   0.0,  2.99, 
 03/06/05, 15:00,  18.8,  42,  18.0,  14.2,  13.6,   0.0,  2.51, 
 03/06/05, 16:00,  17.8,  54,  18.1,  14.5,  13.7,   0.0,  1.90, 
 03/06/05, 17:00,  17.5,  62,  18.2,  14.8,  13.5,   0.0,  1.38, 
 03/06/05, 18:00,  15.3,  72,  18.1,  15.0,  13.5,   0.0,  0.72, 
 03/06/05, 19:00,  12.8,  86,  17.7,  15.2,  13.5,   0.0,  0.16, 
 03/06/05, 20:00,  11.0,  93,  17.4,  15.3,  13.5,   0.0,  0.00, 
 03/06/05, 21:00,  10.0,  96,  16.8,  15.4,  13.6,   0.0,  0.00, 
 03/06/05, 22:00,   9.9,  96,  16.4,  15.4,  13.7,   0.0,  0.00, 
 03/06/05, 23:00,   9.7,  97,  16.0,  15.4,  13.6,   0.0,  0.00, 
 03/06/06, 00:00,   9.8,  87,  15.5,  15.4,  13.6,   0.0,  0.00, 
 03/06/06, 01:00,   9.2,  83,  15.2,  15.3,  13.7,   0.0,  0.00, 
 03/06/06, 02:00,   9.7,  62,  14.9,  15.2,  13.7,   0.0,  0.00, 
 03/06/06, 03:00,  10.0,  60,  14.5,  15.1,  13.7,   0.0,  0.00, 
 03/06/06, 04:00,  10.4,  70,  14.2,  15.0,  13.7,   0.0,  0.00, 
 03/06/06, 05:00,  10.0,  87,  13.9,  14.9,  13.7,   0.0,  0.00, 
 03/06/06, 06:00,  11.0,  82,  13.6,  14.8,  13.7,   0.0,  0.23, 
 03/06/06, 07:00,  14.7,  75,  13.6,  14.7,  13.8,   0.0,  0.87, 
 03/06/06, 08:00,  15.6,  65,  13.9,  14.5,  13.8,   0.0,  1.60, 
 03/06/06, 09:00,  17.2,  60,  14.4,  14.4,  13.8,   0.0,  2.22, 
 03/06/06, 10:00,  18.1,  57,  15.0,  14.4,  13.8,   0.0,  2.73, 
 03/06/06, 11:00,  19.7,  42,  15.8,  14.4,  13.8,   0.0,  3.09, 
 03/06/06, 12:00,  20.5,  39,  16.9,  14.5,  13.8,   0.0,  3.26, 
 03/06/06, 13:00,  21.6,  37,  18.0,  14.6,  13.8,   0.0,  3.19, 
 03/06/06, 14:00,  21.9,  41,  18.4,  14.8,  13.8,   0.0,  2.92, 
 03/06/06, 15:00,  21.7,  42,  18.5,  15.0,  13.9,   0.0,  2.57, 
 03/06/06, 16:00,  20.6,  55,  18.6,  15.3,  13.8,   0.0,  1.90, 
 03/06/06, 17:00,  19.2,  55,  18.7,  15.5,  13.8,   0.0,  1.26, 
 03/06/06, 18:00,  17.7,  55,  18.7,  15.7,  13.8,   0.0,  0.56, 
 03/06/06, 19:00,  15.7,  59,  18.5,  15.8,  13.9,   0.0,  0.11, 
 03/06/06, 20:00,  14.7,  64,  18.1,  16.0,  13.8,   0.0,  0.00, 
 03/06/06, 21:00,  14.0,  72,  17.7,  16.0,  13.8,   0.0,  0.00, 
 03/06/06, 22:00,  13.1,  79,  17.3,  16.1,  13.8,   0.0,  0.00, 
 03/06/06, 23:00,  11.9,  83,  16.9,  16.1,  13.8,   0.0,  0.00, 
 03/06/07, 00:00,  11.5,  81,  16.5,  16.0,  13.9,   0.0,  0.00, 
 03/06/07, 01:00,  11.7,  78,  16.2,  16.0,  13.9,   0.0,  0.00, 
 03/06/07, 02:00,  10.3,  88,  15.8,  15.9,  13.9,   0.0,  0.00, 
 03/06/07, 03:00,  10.1,  87,  15.5,  15.8,  13.9,   0.0,  0.00, 
 03/06/07, 04:00,   9.7,  89,  15.3,  15.7,  14.0,   0.0,  0.00, 
 03/06/07, 05:00,  11.7,  77,  15.0,  15.6,  14.0,   0.0,  0.00, 
 03/06/07, 06:00,  10.8,  87,  14.7,  15.5,  14.0,   0.0,  0.19, 
 03/06/07, 07:00,  12.3,  84,  14.6,  15.4,  14.0,   0.0,  0.43, 
 03/06/07, 08:00,  14.1,  80,  14.7,  15.3,  14.0,   0.0,  0.79, 
 03/06/07, 09:00,  14.2,  76,  14.8,  15.2,  14.0,   0.0,  1.13, 
 03/06/07, 10:00,  14.6,  76,  15.1,  15.1,  14.1,   0.0,  1.26, 
 03/06/07, 11:00,  15.2,  76,  15.4,  15.0,  14.1,   0.0,  1.26, 
 03/06/07, 12:00,  15.6,  77,  15.6,  15.0,  14.1,   0.0,  1.31, 
 03/06/07, 13:00,  16.1,  75,  16.1,  15.0,  14.1,   0.0,  1.71, 
 03/06/07, 14:00,  16.5,  73,  16.4,  15.1,  14.1,   0.0,  1.14, 
 03/06/07, 15:00,  16.2,  77,  16.6,  15.1,  14.1,   0.0,  0.68, 
 03/06/07, 16:00,  15.6,  76,  16.7,  15.2,  14.1,   0.0,  0.68, 
 03/06/07, 17:00,  14.2,  86,  16.7,  15.3,  14.0,   0.0,  0.26, 
 03/06/07, 18:00,  10.0,  96,  16.6,  15.3,  14.0,   0.0,  0.00, 
 03/06/07, 19:00,   9.5,  99,  16.3,  15.4,  14.0,   0.0,  0.00, 
 03/06/07, 20:00,   9.5,  95,  16.0,  15.4,  14.0,   0.0,  0.00, 
 03/06/07, 21:00,   9.3,  99,  15.6,  15.4,  14.0,   0.0,  0.00, 
 03/06/07, 22:00,   9.1,  99,  15.4,  15.4,  14.0,   0.0,  0.00, 
 03/06/07, 23:00,   8.5,  97,  15.1,  15.3,  14.1,   0.0,  0.00, 
 03/06/08, 00:00,   7.8,  98,  14.7,  15.2,  14.1,   0.0,  0.00, 
 03/06/08, 01:00,   8.0,  95,  14.5,  15.2,  14.1,   0.0,  0.00, 
 03/06/08, 02:00,   7.8,  95,  14.2,  15.1,  14.1,   0.0,  0.00, 
 03/06/08, 03:00,   7.3,  99,  13.9,  15.0,  14.1,   0.0,  0.00, 
 03/06/08, 04:00,   7.1,  97,  13.6,  14.9,  14.1,   0.0,  0.00, 
 03/06/08, 05:00,   9.9,  77,  13.3,  14.7,  14.1,   0.0,  0.00, 
 03/06/08, 06:00,   8.7,  95,  13.1,  14.6,  14.1,   0.0,  0.24, 
 03/06/08, 07:00,  11.8,  84,  13.0,  14.5,  14.1,   0.0,  0.95, 
 03/06/08, 08:00,  13.6,  76,  13.3,  14.4,  14.1,   0.0,  1.72, 
 03/06/08, 09:00,  13.4,  86,  14.0,  14.3,  14.1,   0.5,  2.40, 
 03/06/08, 10:00,  15.6,  78,  14.6,  14.2,  14.0,   0.0,  2.94, 
 03/06/08, 11:00,  17.3,  79,  15.6,  14.2,  14.0,   0.0,  3.29, 
 03/06/08, 12:00,  18.8,  69,  16.8,  14.3,  14.0,   0.0,  3.03, 
 03/06/08, 13:00,  19.5,  64,  17.8,  14.4,  14.0,   0.0,  3.56, 
 03/06/08, 14:00,  20.5,  58,  18.4,  14.7,  14.0,   0.0,  3.40, 
 03/06/08, 15:00,  20.7,  61,  18.4,  15.0,  14.0,   0.0,  2.99, 
 03/06/08, 16:00,  20.6,  61,  18.6,  15.2,  14.1,   0.0,  2.34, 
 03/06/08, 17:00,  20.4,  61,  18.9,  15.5,  13.9,   0.0,  1.80, 
 03/06/08, 18:00,  17.9,  71,  19.1,  15.7,  14.0,   0.0,  0.67, 
 03/06/08, 19:00,  15.6,  80,  18.8,  15.9,  14.0,   0.0,  0.13, 
 03/06/08, 20:00,  13.2,  92,  18.5,  16.0,  14.0,   0.0,  0.00, 
 03/06/08, 21:00,  13.1,  92,  18.1,  16.1,  14.0,   0.0,  0.00, 
 03/06/08, 22:00,  13.3,  86,  17.7,  16.2,  14.0,   0.0,  0.00, 
 03/06/08, 23:00,  12.8,  85,  17.3,  16.2,  14.0,   0.0,  0.00, 
 03/06/09, 00:00,  11.8,  86,  16.8,  16.2,  14.0,   0.0,  0.00, 
 03/06/09, 01:00,  10.7,  90,  16.5,  16.2,  14.0,   0.0,  0.00, 
 03/06/09, 02:00,  10.1,  90,  16.1,  16.1,  14.1,   0.0,  0.00, 
 03/06/09, 03:00,  11.2,  82,  15.7,  16.0,  14.1,   0.0,  0.00, 
 03/06/09, 04:00,  10.1,  91,  15.5,  15.9,  14.1,   0.0,  0.00, 
 03/06/09, 05:00,  10.0,  94,  15.1,  15.7,  14.1,   0.0,  0.00, 
 03/06/09, 06:00,  11.2,  91,  14.9,  15.6,  14.2,   0.0,  0.26, 
 03/06/09, 07:00,  14.2,  81,  14.8,  15.6,  14.2,   0.0,  0.96, 
 03/06/09, 08:00,  15.2,  80,  15.0,  15.4,  14.2,   0.0,  1.68, 
 03/06/09, 09:00,  17.1,  74,  15.6,  15.3,  14.2,   0.0,  2.31, 
 03/06/09, 10:00,  18.6,  68,  16.2,  15.3,  14.2,   0.0,  2.87, 
 03/06/09, 11:00,  19.2,  64,  17.0,  15.3,  14.2,   0.0,  3.24, 
 03/06/09, 12:00,  21.2,  59,  18.1,  15.4,  14.2,   0.0,  3.21, 
 03/06/09, 13:00,  21.4,  64,  19.4,  15.5,  14.3,   0.0,  2.94, 
 03/06/09, 14:00,  21.0,  63,  19.9,  15.7,  14.3,   0.0,  2.38, 
 03/06/09, 15:00,  19.2,  73,  20.1,  16.0,  14.3,   0.0,  2.17, 
 03/06/09, 16:00,  18.3,  76,  20.1,  16.3,  14.2,   0.0,  0.99, 
 03/06/09, 17:00,  17.2,  79,  20.0,  16.5,  14.3,   0.0,  0.73, 
 03/06/09, 18:00,  16.5,  84,  19.8,  16.7,  14.3,   0.0,  0.32, 
 03/06/09, 19:00,  14.9,  90,  19.5,  16.8,  14.4,   0.0,  0.02, 
 03/06/09, 20:00,  14.0,  93,  19.1,  16.9,  14.4,   0.0,  0.00, 
 03/06/09, 21:00,  13.7,  94,  18.7,  17.0,  14.4,   0.0,  0.00, 
 03/06/09, 22:00,  13.1,  95,  18.4,  17.0,  14.4,   0.0,  0.00, 
 03/06/09, 23:00,  12.5,  97,  18.1,  17.0,  14.5,   0.0,  0.00, 
 03/06/10, 00:00,  12.3,  97,  17.7,  17.0,  14.5,   0.0,  0.00, 
 03/06/10, 01:00,  12.0,  97,  17.5,  16.9,  14.5,   0.0,  0.00, 
 03/06/10, 02:00,  12.1,  98,  17.3,  16.9,  14.5,   0.0,  0.00, 
 03/06/10, 03:00,  11.9,  99,  16.9,  16.8,  14.5,   0.0,  0.00, 
 03/06/10, 04:00,  11.8,  99,  16.8,  16.7,  14.5,   0.0,  0.00, 
 03/06/10, 05:00,  11.4,  99,  16.6,  16.6,  14.5,   0.0,  0.00, 
 03/06/10, 06:00,  11.6,  99,  16.4,  16.5,  14.5,   0.0,  0.09, 
 03/06/10, 07:00,  12.2,  95,  16.2,  16.4,  14.6,   0.0,  0.41, 
 03/06/10, 08:00,  13.2,  96,  16.2,  16.3,  14.6,   0.0,  0.58, 
 03/06/10, 09:00,  14.6,  84,  16.3,  16.3,  14.6,   0.0,  1.61, 
 03/06/10, 10:00,  15.9,  83,  16.5,  16.2,  14.6,   0.0,  1.39, 
 03/06/10, 11:00,  15.5,  81,  16.9,  16.1,  14.6,   0.0,  1.45, 
 03/06/10, 12:00,  16.5,  77,  17.2,  16.1,  14.6,   0.0,  1.83, 
 03/06/10, 13:00,  17.3,  76,  17.6,  16.1,  14.6,   0.0,  1.85, 
 03/06/10, 14:00,  15.9,  81,  18.0,  16.2,  14.6,   0.0,  1.04, 
 03/06/10, 15:00,  16.2,  82,  18.0,  16.2,  14.6,   0.0,  0.70, 
 03/06/10, 16:00,  14.3,  88,  18.0,  16.3,  14.6,   0.0,  0.11, 
 03/06/10, 17:00,  13.3,  98,  17.8,  16.4,  14.6,   0.0,  0.13, 
 03/06/10, 18:00,  12.4,  99,  17.7,  16.5,  14.6,   1.0,  0.07, 
 03/06/10, 19:00,  12.3,  99,  17.4,  16.5,  14.7,   0.5,  0.00, 
 03/06/10, 20:00,  12.1,  99,  17.1,  16.5,  14.7,   0.0,  0.00, 
 03/06/10, 21:00,  11.9,  99,  16.8,  16.5,  14.7,   0.0,  0.00, 
 03/06/10, 22:00,  11.7,  99,  16.7,  16.4,  14.7,   0.0,  0.00, 
 03/06/10, 23:00,  11.5,  99,  16.5,  16.4,  14.7,   0.0,  0.00, 
 03/06/11, 00:00,  11.4,  99,  16.3,  16.3,  14.7,   0.0,  0.00, 
 03/06/11, 01:00,  11.4,  99,  16.1,  16.2,  14.7,   0.0,  0.00, 
 03/06/11, 02:00,  11.5,  99,  15.9,  16.2,  14.7,   0.0,  0.00, 
 03/06/11, 03:00,  11.2,  99,  15.7,  16.1,  14.7,   0.0,  0.00, 
 03/06/11, 04:00,  11.2,  99,  15.6,  15.9,  14.7,   0.0,  0.00, 
 03/06/11, 05:00,  11.1,  99,  15.5,  15.9,  14.7,   0.0,  0.00, 
 03/06/11, 06:00,  11.3,  99,  15.4,  15.9,  14.7,   0.0,  0.07, 
 03/06/11, 07:00,  11.7,  99,  15.2,  15.7,  14.7,   0.5,  0.43, 
 03/06/11, 08:00,  12.4,  99,  15.3,  15.6,  14.7,   0.0,  1.13, 
 03/06/11, 09:00,  12.9,  99,  15.5,  15.6,  14.7,   0.0,  1.04, 
 03/06/11, 10:00,  14.4,  99,  15.9,  15.6,  14.7,   0.0,  1.97, 
 03/06/11, 11:00,  13.9,  99,  16.4,  15.6,  14.7,   0.0,  0.40, 
 03/06/11, 12:00,  14.6,  96,  16.6,  15.6,  14.7,   0.0,  0.53, 
 03/06/11, 13:00,  14.7,  98,  16.7,  15.6,  14.7,   0.0,  0.34, 
 03/06/11, 14:00,  15.2,  96,  16.7,  15.6,  14.7,   0.0,  0.46, 
 03/06/11, 15:00,  14.6,  95,  16.7,  15.8,  14.7,   0.0,  0.56, 
 03/06/11, 16:00,  15.3,  95,  16.8,  15.8,  14.7,   0.0,  0.42, 
 03/06/11, 17:00,  15.4,  96,  16.8,  15.8,  14.7,   0.0,  0.41, 
 03/06/11, 18:00,  14.8,  98,  16.8,  15.9,  14.7,   0.0,  0.21, 
 03/06/11, 19:00,  14.5,  99,  16.8,  15.9,  14.7,   0.0,  0.05, 
 03/06/11, 20:00,  14.4,  99,  16.7,  15.9,  14.7,   0.0,  0.00, 
 03/06/11, 21:00,  14.0,  99,  16.5,  15.9,  14.7,   0.0,  0.00, 
 03/06/11, 22:00,  14.1,  99,  16.4,  15.9,  14.7,   0.0,  0.00, 
 03/06/11, 23:00,  13.8,  99,  16.2,  15.9,  14.7,   0.0,  0.00, 
 03/06/12, 00:00,  13.8,  99,  16.0,  15.8,  14.7,   0.0,  0.00, 
 03/06/12, 01:00,  13.6,  99,  15.9,  15.7,  14.7,   0.0,  0.00, 
 03/06/12, 02:00,  12.2,  99,  15.8,  15.7,  14.7,   0.0,  0.00, 
 03/06/12, 03:00,  12.6,  99,  15.6,  15.7,  14.7,   0.0,  0.00, 
 03/06/12, 04:00,  13.6,  96,  15.5,  15.7,  14.7,   0.0,  0.00, 
 03/06/12, 05:00,  13.8,  96,  15.3,  15.6,  14.7,   0.0,  0.00, 
 03/06/12, 06:00,  14.8,  95,  15.2,  15.6,  14.7,   0.0,  0.25, 
 03/06/12, 07:00,  15.8,  87,  15.2,  15.5,  14.7,   0.0,  0.45, 
 03/06/12, 08:00,  16.7,  90,  15.4,  15.5,  14.7,   0.0,  0.98, 
 03/06/12, 09:00,  19.8,  83,  15.8,  15.4,  14.7,   0.0,  2.45, 
 03/06/12, 10:00,  19.8,  82,  16.6,  15.4,  14.7,   0.0,  2.64, 
 03/06/12, 11:00,  20.0,  82,  17.4,  15.4,  14.6,   0.0,  1.94, 
 03/06/12, 12:00,  20.8,  80,  18.0,  15.5,  14.6,   0.0,  0.95, 
 03/06/12, 13:00,  20.7,  81,  18.4,  15.7,  14.6,   0.0,  1.57, 
 03/06/12, 14:00,  20.7,  85,  18.7,  15.9,  14.6,   0.5,  1.34, 
 03/06/12, 15:00,  19.2,  89,  18.9,  16.1,  14.6,   0.0,  0.84, 
 03/06/12, 16:00,  18.9,  88,  19.0,  16.2,  14.6,   0.0,  0.52, 
 03/06/12, 17:00,  17.4,  94,  18.9,  16.4,  14.6,   0.0,  0.42, 
 03/06/12, 18:00,  16.7,  96,  18.8,  16.5,  14.6,   0.0,  0.15, 
 03/06/12, 19:00,  15.9,  99,  18.7,  16.6,  14.6,   0.0,  0.00, 
 03/06/12, 20:00,  15.6,  99,  18.4,  16.7,  14.6,   0.0,  0.00, 
 03/06/12, 21:00,  15.4,  99,  18.2,  16.8,  14.7,   0.0,  0.00, 
 03/06/12, 22:00,  15.2,  99,  18.0,  16.8,  14.7,   0.5,  0.00, 
 03/06/12, 23:00,  15.9,  97,  17.7,  16.8,  14.7,   0.5,  0.00, 
 03/06/13, 00:00,  15.4,  99,  17.5,  16.8,  14.7,   1.0,  0.00, 
 03/06/13, 01:00,  16.0,  99,  17.3,  16.7,  14.7,   0.5,  0.00, 
 03/06/13, 02:00,  16.2,  99,  17.2,  16.7,  14.8,   0.0,  0.00, 
 03/06/13, 03:00,  16.6,  99,  17.1,  16.6,  14.8,   0.5,  0.00, 
 03/06/13, 04:00,  16.6,  99,  16.9,  16.6,  14.8,   0.0,  0.00, 
 03/06/13, 05:00,  16.7,  99,  16.8,  16.5,  14.8,   0.5,  0.00, 
 03/06/13, 06:00,  16.9,  99,  16.8,  16.5,  14.8,   0.5,  0.01, 
 03/06/13, 07:00,  17.0,  99,  16.8,  16.5,  14.8,   0.0,  0.09, 
 03/06/13, 08:00,  17.3,  99,  16.8,  16.4,  14.9,   0.5,  0.22, 
 03/06/13, 09:00,  17.7,  99,  16.8,  16.4,  14.9,   0.0,  0.34, 
 03/06/13, 10:00,  18.2,  99,  17.0,  16.3,  14.9,   0.0,  0.47, 
 03/06/13, 11:00,  18.6,  99,  17.1,  16.3,  14.9,   0.0,  0.76, 
 03/06/13, 12:00,  19.2,  99,  17.3,  16.3,  14.9,   0.0,  0.89, 
 03/06/13, 13:00,  19.0,  97,  17.7,  16.3,  14.9,   0.0,  1.06, 
 03/06/13, 14:00,  19.5,  97,  18.0,  16.4,  14.9,   0.0,  0.86, 
 03/06/13, 15:00,  20.6,  96,  18.2,  16.4,  14.9,   0.0,  1.12, 
 03/06/13, 16:00,  19.7,  99,  18.5,  16.5,  14.9,   0.5,  0.45, 
 03/06/13, 17:00,  19.0,  99,  18.6,  16.6,  14.9,   0.0,  0.21, 
 03/06/13, 18:00,  18.6,  99,  18.5,  16.7,  14.9,   1.0,  0.07, 
 03/06/13, 19:00,  17.1,  99,  18.4,  16.8,  14.9,   2.5,  0.00, 
 03/06/13, 20:00,  16.3,  99,  18.4,  16.8,  14.9,   0.5,  0.00, 
 03/06/13, 21:00,  15.8,  99,  18.2,  16.8,  14.9,   0.0,  0.00, 
 03/06/13, 22:00,  15.2,  99,  18.0,  16.9,  14.9,   0.0,  0.00, 
 03/06/13, 23:00,  15.0,  99,  17.8,  16.9,  15.0,   0.0,  0.00, 
 03/06/14, 00:00,  14.4,  99,  17.6,  16.9,  15.0,   0.0,  0.00, 
 03/06/14, 01:00,  14.1,  99,  17.3,  16.9,  15.0,   0.0,  0.00, 
 03/06/14, 02:00,  13.8,  99,  17.0,  16.8,  15.0,   0.0,  0.00, 
 03/06/14, 03:00,  14.0,  99,  16.8,  16.8,  15.0,   0.0,  0.00, 
 03/06/14, 04:00,  14.6,  96,  16.6,  16.6,  15.0,   0.0,  0.00, 
 03/06/14, 05:00,  14.2,  98,  16.5,  16.7,  15.0,   0.0,  0.00, 
 03/06/14, 06:00,  14.8,  96,  16.3,  16.6,  15.1,   0.0,  0.17, 
 03/06/14, 07:00,  16.2,  94,  16.3,  16.5,  15.1,   0.0,  0.36, 
 03/06/14, 08:00,  15.7,  94,  16.3,  16.4,  15.1,   0.0,  0.39, 
 03/06/14, 09:00,  16.5,  99,  16.5,  16.4,  15.1,   0.5,  1.32, 
 03/06/14, 10:00,  17.0,  98,  16.8,  16.3,  15.1,   0.0,  1.72, 
 03/06/14, 11:00,  16.9,  94,  17.2,  16.3,  15.1,   0.0,  0.94, 
 03/06/14, 12:00,  16.7,  93,  17.6,  16.3,  15.1,   0.0,  0.68, 
 03/06/14, 13:00,  16.6,  99,  17.7,  16.4,  15.1,   1.0,  0.81, 
 03/06/14, 14:00,  14.2,  99,  17.9,  16.4,  15.1,   4.0,  0.23, 
 03/06/14, 15:00,  13.5,  99,  17.7,  16.5,  15.1,   4.5,  0.11, 
 03/06/14, 16:00,  13.2,  99,  17.5,  16.6,  15.1,   2.0,  0.17, 
 03/06/14, 17:00,  12.8,  99,  17.3,  16.7,  15.1,   0.5,  0.31, 
 03/06/14, 18:00,  13.5,  97,  17.2,  16.7,  15.1,   0.5,  0.11, 
 03/06/14, 19:00,  13.5,  99,  16.9,  16.7,  15.2,   0.5,  0.05, 
 03/06/14, 20:00,  12.7,  99,  16.8,  16.6,  15.2,   0.0,  0.00, 
 03/06/14, 21:00,  12.7,  99,  16.7,  16.6,  15.2,   0.5,  0.00, 
 03/06/14, 22:00,  12.6,  99,  16.5,  16.5,  15.2,   0.0,  0.00, 
 03/06/14, 23:00,  12.1,  99,  16.4,  16.5,  15.2,   0.0,  0.00, 
 03/06/15, 00:00,  12.4,  99,  16.2,  16.4,  15.2,   0.0,  0.00, 
 03/06/15, 01:00,  12.2,  99,  16.1,  16.4,  15.2,   0.0,  0.00, 
 03/06/15, 02:00,  12.4,  99,  15.8,  16.3,  15.2,   0.5,  0.00, 
 03/06/15, 03:00,  12.2,  99,  15.7,  16.2,  15.2,   0.0,  0.00, 
 03/06/15, 04:00,  12.3,  99,  15.6,  16.0,  15.2,   0.5,  0.00, 
 03/06/15, 05:00,  12.5,  99,  15.5,  16.0,  15.2,   0.0,  0.01, 
 03/06/15, 06:00,  13.3,  99,  15.5,  16.0,  15.2,   0.0,  0.14, 
 03/06/15, 07:00,  14.3,  97,  15.5,  15.9,  15.2,   0.0,  0.50, 
 03/06/15, 08:00,  16.6,  91,  15.6,  15.8,  15.2,   0.0,  1.30, 
 03/06/15, 09:00,  17.4,  90,  15.9,  15.7,  15.2,   0.0,  1.81, 
 03/06/15, 10:00,  15.7,  99,  16.6,  15.7,  15.2,   0.0,  1.00, 
 03/06/15, 11:00,  15.6,  95,  16.8,  15.7,  15.2,   0.0,  0.63, 
 03/06/15, 12:00,  15.6,  92,  16.9,  15.9,  15.2,   0.0,  0.62, 
 03/06/15, 13:00,  15.6,  90,  17.0,  15.8,  15.2,   0.0,  0.83, 
 03/06/15, 14:00,  16.7,  87,  17.2,  15.9,  15.2,   0.0,  1.07, 
 03/06/15, 15:00,  16.0,  94,  17.5,  16.1,  15.1,   0.0,  0.86, 
 03/06/15, 16:00,  15.6,  99,  17.6,  16.1,  15.1,   0.0,  0.24, 
 03/06/15, 17:00,  15.7,  94,  17.5,  16.2,  15.1,   0.0,  0.32, 
 03/06/15, 18:00,  15.4,  94,  17.5,  16.3,  15.1,   0.0,  0.13, 
 03/06/15, 19:00,  14.9,  95,  17.2,  16.3,  15.1,   0.0,  0.00, 
 03/06/15, 20:00,  14.6,  97,  17.2,  16.3,  15.1,   0.0,  0.00, 
 03/06/15, 21:00,  14.4,  99,  17.0,  16.3,  15.1,   0.5,  0.00, 
 03/06/15, 22:00,  14.2,  99,  16.8,  16.3,  15.1,   1.0,  0.00, 
 03/06/15, 23:00,  14.8,  96,  16.7,  16.3,  15.1,   0.0,  0.00, 
 03/06/16, 00:00,  14.6,  97,  16.6,  16.3,  15.1,   0.0,  0.00, 
 03/06/16, 01:00,  14.6,  97,  16.4,  16.3,  15.1,   0.0,  0.00, 